Temperature
13 14 14 14 15 14 13 13 13 13 13 14 14 13 14 14 15 15 15 15 15 15 15 15 14 14 14 13 13 13 13 13 13 12 12 12 12 12 12 12 11 11 11 11
14 14 14 14 14 14 14 13 13 14 13 14 14 14 14 14 14 15 15 15 15 15 15 14 14 14 14 13 13 13 12 12 12 12 12 12 12 12 11 11 11 11 11 11
12 13 14 13 14 14 14 13 13 13 14 13 12 12 13 14 14 15 15 15 15 15 15 14 14 14 13 13 13 12 12 12 12 12 12 12 11 11 11 11 11 11 11 10
11 13 13 14 14 14 14 13 13 13 13 12 13 14 14 15 15 15 15 15 15 14 14 14 14 13 13 13 12 12 12 12 12 12 11 11 11 11 11 11 10 10 10 10
10 11 12 13 13 13 13 13 13 12 12 12 13 13 13 14 14 15 15 15 14 14 14 14 13 13 13 12 12 12 12 11 11 11 11 11 11 11 10 10 10 10 10 10
9 12 12 13 14 14 14 13 13 12 12 11 12 11 12 14 14 14 14 14 14 14 13 13 13 13 12 12 12 11 11 11 11 11 10 10 10 10 10 10 10 9 9 9
9 10 11 12 13 13 13 13 13 13 12 12 11 13 14 14 14 14 14 14 13 13 13 13 12 12 12 12 11 11 11 11 10 10 10 10 10 10 10 9 9 9 9 9
8 10 11 12 12 12 12 14 14 14 13 13 13 13 14 14 13 13 13 13 13 13 13 12 12 12 11 11 11 11 10 10 10 10 10 10 9 9 9 9 9 9 8 8
10 11 12 12 13 14 14 14 14 14 14 13 13 13 13 13 13 13 13 12 12 12 12 12 11 11 11 11 10 10 10 10 10 9 9 9 9 9 9 8 8 8 8 8
8 9 11 13 13 14 14 14 14 14 13 13 13 13 13 13 12 12 12 12 12 12 11 11 11 11 10 10 10 10 10 9 9 9 9 9 9 8 8 8 8 8 8 8
8 9 11 12 13 14 14 14 14 13 13 13 13 13 13 12 12 12 12 11 11 11 11 11 10 10 10 10 9 9 9 9 9 8 8 8 8 8 8 8 7 7 7 7
9 11 10 12 14 13 13 13 13 13 13 12 12 12 12 12 12 11 11 11 11 10 10 10 10 10 9 9 9 9 9 8 8 8 8 8 8 7 7 7 7 7 7 7
12 13 13 13 13 13 13 13 13 13 12 12 12 12 12 12 11 11 11 10 10 10 10 9 9 9 9 9 8 8 8 8 8 8 8 7 7 7 7 7 7 6 6 6
12 12 12 12 12 12 12 12 12 12 12 12 12 11 11 11 11 10 10 10 10 9 9 9 9 9 9 8 8 8 8 7 7 7 7 7 7 7 6 6 6 6 6 6
12 12 12 12 12 12 12 12 11 11 11 11 11 11 11 11 10 10 10 9 9 9 9 9 9 8 8 8 8 7 7 7 7 7 7 7 6 6 6 6 5 5 5 5
11 11 11 11 11 11 11 11 11 11 11 10 10 10 10 10 10 10 9 9 9 9 8 8 8 8 8 8 7 7 7 7 7 7 6 6 6 6 6 5 5 5 5 5
10 10 10 10 10 11 11 11 10 10 10 10 10 10 10 9 9 9 9 9 8 8 8 8 8 8 8 7 7 7 7 6 6 6 6 6 6 5 5 5 5 4 4 4
10 10 10 10 10 10 10 10 10 10 10 10 9 9 9 9 9 9 8 8 8 8 8 7 7 7 7 7 7 6 6 6 6 6 6 5 5 5 5 5 4 4 4 4
10 10 10 10 10 10 10 9 9 9 9 9 9 9 8 8 8 8 8 8 8 7 7 7 7 7 7 7 6 6 6 6 5 5 5 5 5 5 4 4 4 3 3 3
9 9 9 9 9 9 9 9 9 9 9 8 8 8 8 8 8 7 7 7 7 7 7 7 7 7 6 6 6 6 6 5 5 5 5 4 4 4 4 4 3 3 3 3
8 9 9 9 9 9 8 8 8 8 8 8 8 8 7 7 7 7 7 7 6 6 6 6 6 6 6 6 6 5 5 5 5 4 4 4 4 4 3 3 3 3 3 2
8 8 8 8 8 8 8 8 8 8 8 7 7 7 7 7 6 6 6 6 6 6 6 6 5 5 5 5 5 5 5 4 4 4 4 3 3 3 3 3 3 2 2 2
7 7 8 7 7 7 7 7 7 7 7 7 6 6 6 6 6 6 5 5 5 5 5 5 5 5 5 5 4 4 4 4 4 3 3 3 3 3 3 2 2 2 2 2
7 7 7 7 7 7 7 6 6 6 6 6 6 6 5 5 5 5 5 5 5 5 5 4 4 4 4 4 4 4 3 3 3 3 3 3 2 2 2 2 2 2 2 1
6 6 6 6 6 6 6 6 6 6 6 6 5 5 5 5 5 5 4 4 4 4 4 4 4 4 3 3 3 3 3 3 3 2 2 2 2 2 1 1 1 1 1 1
6 6 6 6 6 6 6 6 5 5 5 5 5 5 5 4 4 4 4 4 4 4 3 3 3 3 3 3 3 2 2 2 2 2 2 2 1 1 1 1 1 1 1 1
5 5 5 5 5 5 5 5 5 5 5 5 5 4 4 4 4 4 3 3 3 3 3 3 2 2 2 2 2 2 2 2 1 1 1 1 1 1 1 1 1 1 1 0
Wind_Speed
7 6 4 5 6 7 8 8 8 9 10 12 8 7 5 4 3 3 3 3 4 5 4 4 4 4 4 3 3 3 4 4 4 3 3 2 2 3 2 2 2 2 2 1
4 4 4 6 8 8 9 7 8 7 10 8 4 1 1 2 4 4 5 5 5 5 5 6 6 5 5 4 3 3 4 4 4 3 3 3 3 3 2 2 1 1 2 2
4 4 3 7 7 7 6 5 6 8 8 2 1 3 4 4 4 4 5 6 6 6 7 7 6 6 6 5 3 3 3 3 3 3 3 3 3 2 3 2 2 2 2 2
1 1 6 7 2 4 5 6 5 5 4 3 5 4 3 2 3 3 3 4 5 5 5 4 4 4 4 4 4 3 3 3 3 3 3 3 3 3 3 2 2 2 2 2
3 3 7 7 4 3 5 6 4 5 4 2 1 3 3 2 2 4 4 4 4 4 4 3 4 4 4 4 3 3 3 3 3 3 4 4 4 4 3 2 2 2 2 2
3 3 6 6 4 1 2 4 3 3 3 2 3 1 4 3 2 2 1 1 2 2 3 3 3 4 5 4 4 4 4 3 3 3 4 5 5 4 2 3 3 2 2 2
4 5 7 6 3 3 3 5 3 2 3 4 5 5 4 2 1 1 1 0 2 3 3 3 3 4 4 4 4 4 3 2 2 3 4 4 3 3 3 3 2 1 2 2
4 4 7 3 3 4 6 3 2 3 4 4 4 3 1 1 1 1 1 0 2 3 2 2 3 4 4 4 4 3 3 2 2 3 3 3 3 3 3 3 2 2 1 2
8 8 5 3 6 5 3 3 4 4 4 4 3 2 2 1 1 1 2 1 1 3 2 1 2 4 4 4 2 2 2 2 3 2 2 3 4 4 3 3 3 2 2 3
5 7 6 6 5 5 4 5 5 4 4 4 3 3 2 2 2 2 2 2 2 3 2 1 2 2 3 2 2 3 3 3 3 2 2 2 3 3 3 3 3 3 3 3
5 7 6 6 6 6 4 4 3 2 3 4 4 3 3 3 3 3 2 1 2 3 3 3 2 2 2 2 2 3 3 3 2 2 2 2 2 2 3 4 4 4 4 4
7 7 5 7 6 4 4 4 3 2 2 2 4 5 4 4 3 3 3 2 2 2 3 3 3 2 2 2 3 3 3 3 2 2 2 2 2 1 3 3 4 5 4 4
7 5 5 6 5 4 5 5 4 4 4 4 3 4 4 3 3 3 2 3 3 4 4 3 3 3 3 3 3 4 4 4 3 3 2 2 2 3 2 2 2 3 3 4
6 3 5 5 5 4 4 3 2 2 2 3 3 3 3 2 2 3 4 4 4 3 3 3 3 4 4 3 3 4 4 4 3 3 3 3 3 3 3 2 2 2 3 4
7 6 6 5 3 2 2 1 1 1 1 1 2 3 4 4 4 4 4 3 2 2 2 3 4 4 3 3 4 4 4 3 3 3 3 3 2 2 2 3 2 2 2 3
5 4 4 3 4 3 2 2 3 3 3 3 3 4 4 5 4 3 2 3 3 4 4 4 5 5 4 4 4 3 3 5 3 3 2 2 2 2 2 2 2 2 3 3
3 4 4 4 5 5 4 4 5 4 3 3 3 3 3 3 2 2 3 3 4 4 4 5 5 4 3 4 4 3 3 4 4 2 3 3 3 3 3 3 3 3 3 4
6 7 6 6 6 5 4 3 3 4 3 3 2 2 3 3 4 4 3 2 2 2 4 4 4 3 3 4 4 3 3 3 3 3 2 3 3 3 3 3 4 4 3 3
4 4 4 4 4 4 4 3 3 3 3 3 3 3 3 3 3 3 2 1 2 4 5 4 4 3 3 4 3 3 3 3 3 2 2 3 3 2 3 3 3 3 3 2
2 2 2 2 2 2 3 2 2 2 2 3 3 2 1 2 2 1 1 3 4 4 4 3 2 3 3 4 3 2 3 3 3 2 2 2 2 3 3 3 3 3 3 3
1 1 1 2 2 2 2 3 3 2 2 3 3 3 3 2 2 1 1 3 4 3 2 2 1 2 2 2 2 2 2 2 3 3 3 3 3 3 3 3 3 3 3 3
1 1 1 2 2 1 2 2 3 3 2 2 2 2 1 1 1 1 2 3 3 3 1 1 2 2 2 1 1 2 2 2 2 2 3 3 3 3 3 3 3 3 3 3
1 1 1 1 2 2 1 1 2 2 3 2 2 2 2 2 2 2 3 3 2 3 1 2 2 2 2 1 1 2 2 2 2 3 3 3 3 3 3 3 3 3 3 3
0 0 1 1 2 2 1 1 1 1 2 2 2 3 3 1 1 2 2 3 3 2 1 2 2 2 1 0 1 1 2 2 2 2 2 2 2 3 3 3 3 3 3 3
1 1 0 1 1 2 2 1 1 1 1 1 1 2 2 2 3 2 2 2 2 2 1 2 2 1 0 1 1 1 2 2 2 2 2 2 2 2 3 3 3 3 3 3
1 1 2 2 2 2 1 1 1 2 2 1 2 1 1 1 1 1 1 2 1 1 1 1 1 1 1 1 1 1 1 1 2 2 2 2 2 2 2 3 3 3 3 3
1 1 1 1 1 1 2 2 2 3 3 3 2 2 2 1 1 1 1 1 1 1 1 1 1 1 1 1 1 1 1 1 1 1 2 2 2 2 2 3 3 2 2 3
Wind_Direction
239 248 236 233 232 205 204 207 213 240 246 263 259 248 245 232 219 195 190 195 195 190 192 188 182 183 186 191 189 174 170 175 192 194 183 177 187 191 188 185 192 191 188 206
260 259 253 259 251 229 228 224 229 249 260 261 263 220 230 218 200 198 202 207 202 195 190 193 193 191 192 197 196 176 181 196 194 178 173 184 192 180 175 186 193 182 198 206
261 292 314 269 246 225 228 221 204 229 249 256 234 217 213 216 211 211 211 210 208 205 201 201 198 190 192 198 183 176 194 202 193 181 186 201 197 173 185 194 184 196 212 212
223 43 242 248 251 219 229 246 227 245 264 228 228 229 218 199 196 225 220 213 216 211 208 203 191 183 177 170 170 180 192 201 200 189 197 200 191 197 203 193 193 207 219 223
153 228 274 291 277 206 211 264 238 231 255 257 353 27 340 293 223 226 225 215 210 207 199 183 181 174 160 165 172 180 196 208 209 205 201 194 199 207 202 183 193 211 213 208
153 199 243 259 288 264 149 270 284 221 228 196 106 137 265 268 246 256 262 223 176 156 141 161 183 165 159 172 178 201 209 211 211 207 204 201 206 205 195 185 198 204 219 222
186 223 257 262 285 100 156 259 290 218 214 185 195 221 241 225 228 245 245 172 140 145 156 177 173 159 168 181 204 216 205 194 203 209 210 201 197 196 181 179 174 193 228 255
173 212 254 258 127 173 227 270 269 237 219 209 232 256 251 218 210 181 126 82 156 158 165 168 160 159 176 211 219 196 183 191 208 213 208 189 172 181 179 172 170 194 230 272
195 218 241 215 209 232 223 247 251 239 241 212 213 237 241 236 211 187 181 188 174 159 153 159 169 168 192 229 216 190 183 208 221 221 212 183 174 180 183 181 187 205 217 241
242 260 255 254 256 264 246 247 253 238 222 191 205 221 225 214 202 197 209 196 169 145 152 192 201 196 211 221 197 183 198 222 220 210 217 199 187 184 188 199 204 212 223 237
248 270 290 277 251 255 269 273 263 249 212 196 195 217 212 204 198 194 207 209 167 169 185 207 206 219 224 193 181 197 214 221 223 212 208 203 198 204 206 214 213 217 221 221
233 236 223 256 258 253 259 259 246 229 242 225 198 203 200 197 197 187 186 187 180 190 199 206 200 226 240 203 187 197 222 222 214 209 210 202 194 259 266 251 253 250 241 234
234 243 232 259 267 256 246 253 240 222 215 225 220 195 187 196 194 177 179 188 201 212 214 205 199 226 245 221 198 203 219 225 216 206 205 209 201 199 241 301 300 274 263 261
238 231 257 257 259 255 254 257 257 257 230 207 197 180 171 177 182 188 204 215 215 211 216 209 209 233 243 224 208 217 223 228 220 207 206 208 211 209 208 215 259 291 290 271
248 231 237 252 257 261 252 199 183 229 221 234 192 183 179 181 198 217 223 213 195 205 228 223 227 245 237 217 216 222 222 226 220 207 202 205 207 205 204 211 228 255 295 299
255 249 239 233 233 241 235 209 202 217 215 214 207 205 202 198 203 209 208 188 191 223 238 235 240 247 226 209 214 224 229 236 224 205 199 199 200 202 206 216 228 236 246 258
225 242 240 246 245 240 230 218 208 211 215 219 221 210 190 180 187 214 235 229 222 232 237 239 246 247 222 212 211 217 224 234 231 217 203 203 204 211 214 215 225 238 247 245
226 230 225 223 225 226 229 224 211 205 209 221 206 176 174 184 207 228 237 240 250 269 265 257 249 229 222 220 214 211 210 215 215 216 211 209 212 213 216 221 226 236 255 258
241 235 228 219 207 197 202 210 212 211 209 184 177 189 201 214 220 227 221 214 234 258 268 264 265 234 226 228 220 203 203 205 211 215 211 218 221 221 222 224 230 236 240 241
258 243 215 201 185 188 199 203 200 207 209 183 175 176 198 235 232 208 193 227 243 250 254 257 248 237 234 232 222 201 201 200 205 214 213 212 219 226 230 232 233 237 239 236
264 246 208 192 198 203 201 191 183 199 204 178 179 194 213 235 229 204 209 265 279 279 267 265 251 247 233 223 211 195 199 202 204 209 213 217 224 229 232 234 237 240 243 243
274 244 235 210 185 203 206 187 185 184 173 174 187 189 194 233 245 255 246 244 264 285 285 256 253 254 264 213 176 184 197 205 210 211 213 217 222 229 231 235 238 244 244 241
263 250 235 213 195 196 173 172 181 175 178 186 195 198 206 221 216 220 272 274 270 278 282 250 259 261 265 169 178 193 202 208 212 215 217 220 224 229 233 237 241 244 242 240
267 250 242 198 139 135 171 224 207 197 193 200 203 202 198 209 261 250 245 266 272 277 266 265 263 261 255 177 202 211 224 226 219 217 219 223 227 232 237 240 245 247 246 246
214 206 169 124 163 208 219 209 157 174 181 209 227 230 218 204 217 245 259 260 270 290 292 280 276 286 247 219 221 226 232 236 233 218 215 222 229 235 241 242 244 247 248 247
218 226 235 229 226 223 210 184 194 207 198 225 257 254 245 233 224 231 244 255 249 274 288 277 261 250 227 227 239 249 247 259 267 256 239 234 236 238 244 246 244 243 246 246
201 267 278 293 283 233 210 203 210 223 216 213 238 248 232 225 227 238 247 252 248 247 252 259 253 240 233 235 237 242 246 245 248 254 251 248 243 242 246 247 250 248 248 248
Height
1506 1503 1503 1503 1502 1504 1507 1508 1513 1506 1503 1493 1489 1488 1487 1487 1488 1489 1490 1491 1492 1493 1495 1497 1498 1500 1501 1502 1503 1504 1505 1505 1506 1507 1508 1508 1509 1510 1511 1511 1512 1512 1513 1513
1504 1502 1502 1502 1499 1499 1500 1500 1501 1498 1496 1486 1485 1486 1485 1486 1486 1487 1488 1489 1491 1492 1493 1495 1496 1497 1499 1500 1501 1502 1502 1503 1503 1504 1505 1506 1506 1507 1508 1508 1509 1509 1510 1510
1510 1504 1501 1503 1495 1494 1494 1492 1493 1495 1490 1485 1485 1484 1483 1483 1484 1484 1485 1487 1489 1490 1491 1493 1494 1495 1496 1497 1498 1499 1500 1500 1501 1501 1502 1502 1503 1504 1504 1505 1506 1506 1506 1507
1511 1507 1509 1496 1487 1487 1488 1487 1487 1485 1483 1482 1481 1480 1481 1482 1482 1483 1484 1485 1486 1488 1489 1490 1491 1492 1494 1495 1496 1496 1497 1497 1498 1498 1499 1499 1500 1501 1501 1501 1502 1502 1502 1503
1513 1512 1505 1492 1485 1485 1487 1485 1482 1482 1481 1481 1481 1481 1481 1481 1482 1482 1483 1484 1484 1485 1486 1487 1488 1490 1491 1492 1493 1494 1494 1494 1494 1495 1496 1496 1496 1497 1497 1498 1498 1498 1499 1499
1512 1509 1506 1491 1482 1480 1483 1486 1479 1479 1479 1480 1480 1485 1481 1480 1480 1481 1482 1482 1483 1483 1484 1485 1486 1487 1488 1489 1490 1490 1491 1491 1492 1492 1492 1493 1493 1493 1494 1494 1494 1494 1495 1495
1509 1507 1498 1485 1481 1480 1491 1487 1478 1477 1477 1478 1478 1478 1478 1478 1478 1479 1480 1480 1481 1482 1482 1483 1484 1485 1485 1486 1487 1488 1488 1489 1489 1489 1489 1489 1489 1490 1490 1490 1490 1491 1491 1491
1506 1506 1498 1480 1480 1483 1482 1477 1475 1475 1474 1474 1474 1475 1475 1475 1476 1477 1478 1478 1479 1480 1480 1481 1482 1482 1482 1483 1484 1485 1485 1485 1486 1485 1485 1485 1486 1486 1486 1486 1486 1486 1487 1487
1491 1488 1479 1477 1476 1475 1475 1474 1473 1473 1472 1472 1472 1472 1472 1473 1474 1475 1476 1476 1477 1477 1478 1479 1479 1480 1480 1480 1481 1481 1481 1482 1482 1482 1482 1482 1482 1482 1482 1482 1482 1482 1482 1482
1485 1478 1474 1473 1473 1472 1472 1471 1471 1470 1469 1469 1469 1470 1470 1471 1472 1473 1474 1474 1475 1475 1475 1476 1476 1477 1477 1478 1478 1478 1478 1478 1478 1478 1478 1478 1478 1478 1478 1478 1478 1478 1478 1478
1480 1474 1471 1468 1469 1469 1468 1468 1467 1467 1467 1467 1467 1468 1468 1469 1470 1470 1471 1472 1472 1473 1473 1473 1474 1474 1475 1475 1475 1475 1475 1475 1474 1474 1474 1474 1474 1474 1474 1475 1475 1474 1474 1474
1474 1468 1469 1466 1466 1466 1465 1464 1464 1464 1464 1464 1465 1465 1466 1466 1467 1468 1469 1469 1470 1470 1470 1471 1471 1471 1472 1472 1472 1471 1471 1471 1471 1471 1470 1470 1470 1470 1470 1471 1471 1471 1470 1471
1464 1463 1464 1463 1463 1463 1462 1462 1461 1461 1461 1461 1462 1463 1463 1464 1465 1465 1466 1467 1467 1468 1468 1468 1468 1468 1468 1469 1468 1468 1467 1467 1467 1467 1467 1466 1466 1466 1466 1466 1466 1466 1466 1466
1461 1461 1460 1459 1460 1459 1459 1459 1458 1458 1458 1459 1459 1460 1461 1461 1462 1463 1463 1464 1465 1465 1465 1465 1465 1465 1465 1465 1465 1464 1464 1464 1463 1463 1463 1463 1463 1463 1463 1462 1462 1461 1462 1462
1456 1456 1456 1456 1456 1456 1455 1455 1455 1455 1456 1456 1457 1458 1458 1459 1459 1460 1461 1462 1462 1462 1462 1462 1461 1462 1462 1461 1461 1460 1460 1460 1459 1459 1459 1459 1459 1459 1459 1459 1458 1458 1458 1458
1451 1451 1452 1452 1452 1452 1452 1452 1452 1452 1453 1453 1454 1455 1456 1456 1457 1457 1458 1458 1459 1458 1459 1458 1458 1458 1458 1457 1457 1456 1456 1456 1455 1455 1454 1455 1455 1455 1455 1455 1454 1454 1454 1454
1447 1446 1447 1447 1448 1448 1448 1449 1449 1450 1450 1451 1451 1452 1453 1453 1454 1454 1455 1455 1456 1455 1455 1455 1454 1454 1454 1453 1453 1452 1452 1451 1451 1450 1450 1450 1450 1450 1450 1450 1450 1450 1450 1450
1443 1443 1443 1443 1444 1444 1444 1445 1446 1447 1447 1448 1449 1449 1450 1450 1450 1451 1452 1452 1452 1452 1451 1451 1451 1450 1450 1449 1449 1448 1448 1447 1446 1446 1446 1446 1446 1446 1446 1446 1446 1445 1445 1445
1439 1440 1440 1440 1441 1441 1442 1442 1443 1444 1445 1445 1446 1446 1447 1448 1448 1448 1448 1448 1448 1447 1447 1447 1447 1446 1445 1445 1444 1443 1443 1442 1442 1442 1442 1442 1442 1442 1442 1442 1441 1441 1441 1440
1436 1437 1437 1437 1438 1438 1439 1439 1440 1441 1442 1442 1443 1444 1444 1445 1445 1445 1445 1444 1444 1444 1443 1443 1442 1441 1441 1441 1440 1439 1439 1438 1438 1438 1438 1438 1437 1437 1438 1437 1437 1437 1436 1436
1433 1434 1434 1434 1435 1435 1436 1437 1437 1438 1438 1439 1440 1440 1441 1441 1442 1441 1441 1440 1441 1441 1440 1439 1438 1438 1437 1437 1436 1435 1435 1435 1434 1434 1434 1434 1434 1434 1433 1433 1433 1432 1432 1432
1431 1431 1431 1431 1432 1432 1433 1434 1435 1435 1436 1436 1437 1437 1437 1438 1438 1438 1438 1438 1437 1437 1436 1435 1434 1434 1434 1433 1432 1432 1431 1431 1431 1430 1430 1430 1430 1430 1429 1429 1429 1428 1428 1428
1429 1429 1429 1429 1429 1429 1430 1431 1432 1432 1433 1433 1433 1434 1434 1434 1434 1434 1434 1434 1434 1433 1432 1432 1431 1431 1430 1429 1428 1428 1428 1427 1427 1427 1427 1427 1426 1426 1426 1425 1425 1425 1424 1424
1427 1427 1427 1427 1427 1427 1428 1428 1429 1430 1430 1431 1431 1431 1431 1431 1431 1431 1431 1431 1430 1430 1429 1429 1428 1427 1426 1425 1425 1424 1424 1423 1423 1423 1423 1423 1422 1422 1422 1421 1421 1420 1420 1420
1426 1425 1425 1425 1425 1425 1426 1426 1427 1427 1427 1428 1428 1428 1429 1429 1429 1428 1428 1427 1427 1426 1425 1425 1425 1424 1422 1422 1421 1420 1420 1420 1420 1419 1419 1419 1418 1418 1417 1417 1417 1416 1416 1415
1423 1423 1423 1423 1423 1424 1424 1424 1424 1424 1424 1424 1424 1425 1425 1425 1425 1425 1424 1424 1423 1423 1422 1421 1421 1420 1419 1418 1417 1416 1416 1416 1416 1415 1415 1414 1414 1414 1413 1413 1412 1412 1412 1411
1421 1421 1421 1421 1421 1421 1421 1421 1421 1421 1421 1421 1421 1421 1421 1421 1421 1421 1421 1420 1420 1419 1418 1418 1417 1416 1415 1414 1413 1413 1412 1412 1411 1411 1411 1410 1410 1410 1409 1409 1408 1408 1407 1407